| time (UTC) | temp C | wind direction | speed KPH | gust KPH | rain 1hr cm | rain 24hr cm | rain mn cm | humidity % | barometer mb |
| 20260507183347 | 15 | 327 | 4.8 | 9.7 | 0.00 | 0.00 | 0.00 | 70 | 1020.5 |
| 20260507181853 | 15 | 310 | 1.6 | 11.3 | 0.00 | 0.00 | 0.00 | 73 | 1020.7 |
| 20260507180353 | 15 | 346 | 4.8 | 12.9 | 0.00 | 0.00 | 0.00 | 76 | 1020.8 |
| 20260507174823 | 14 | 354 | 4.8 | 11.3 | 0.00 | 0.00 | 0.00 | 75 | 1020.9 |
| 20260507173333 | 14 | 327 | 8.0 | 12.9 | 0.00 | 0.00 | 0.00 | 73 | 1020.9 |
| 20260507171842 | 14 | 337 | 4.8 | 14.5 | 0.00 | 0.00 | 0.00 | 75 | 1020.9 |
| 20260507170321 | 13 | 326 | 6.4 | 12.9 | 0.00 | 0.00 | 0.00 | 78 | 1020.9 |
| 20260507164826 | 13 | 324 | 3.2 | 8.0 | 0.00 | 0.00 | 0.00 | 79 | 1020.9 |
| 20260507163352 | 12 | 320 | 6.4 | 12.9 | 0.00 | 0.00 | 0.00 | 79 | 1020.9 |
| 20260507161840 | 12 | 353 | 6.4 | 16.1 | 0.00 | 0.00 | 0.00 | 80 | 1021.0 |
| 20260507160355 | 12 | 358 | 6.4 | 12.9 | 0.00 | 0.00 | 0.00 | 80 | 1020.9 |
| 20260507154838 | 12 | 341 | 8.0 | 12.9 | 0.00 | 0.00 | 0.00 | 81 | 1020.9 |
| 20260507153324 | 11 | 318 | 3.2 | 11.3 | 0.00 | 0.00 | 0.00 | 83 | 1021.0 |
| 20260507151814 | 11 | 328 | 8.0 | 14.5 | 0.00 | 0.00 | 0.00 | 84 | 1021.1 |
| 20260507150326 | 11 | 311 | 1.6 | 9.7 | 0.00 | 0.00 | 0.00 | 85 | 1021.1 |
| 20260507144814 | 11 | 322 | 4.8 | 9.7 | 0.00 | 0.00 | 0.00 | 87 | 1021.1 |
| 20260507143345 | 11 | 319 | 4.8 | 8.0 | 0.00 | 0.00 | 0.00 | 87 | 1021.0 |
| 20260507141830 | 11 | 319 | 4.8 | 8.0 | 0.00 | 0.00 | 0.00 | 89 | 1020.9 |
| 20260507140321 | 11 | 320 | 1.6 | 4.8 | 0.00 | 0.00 | 0.00 | 89 | 1020.7 |
| 20260507134835 | 11 | 320 | 0.0 | 4.8 | 0.00 | 0.00 | 0.00 | 89 | 1020.6 |
| 20260507133344 | 11 | 320 | 0.0 | 3.2 | 0.00 | 0.00 | 0.00 | 89 | 1020.5 |
| 20260507131830 | 11 | 320 | 3.2 | 4.8 | 0.00 | 0.00 | 0.00 | 89 | 1020.6 |
| 20260507130319 | 11 | 320 | 0.0 | 3.2 | 0.00 | 0.00 | 0.00 | 89 | 1020.8 |
| 20260507124826 | 11 | 320 | 1.6 | 4.8 | 0.00 | 0.00 | 0.00 | 89 | 1020.7 |
| 20260507123354 | 11 | 320 | 0.0 | 4.8 | 0.00 | 0.00 | 0.00 | 89 | 1020.8 |
| 20260507121821 | 11 | 320 | 3.2 | 4.8 | 0.00 | 0.00 | 0.00 | 88 | 1020.8 |
| 20260507120350 | 11 | 320 | 1.6 | 4.8 | 0.00 | 0.00 | 0.00 | 88 | 1020.9 |
| 20260507114857 | 11 | 321 | 3.2 | 6.4 | 0.00 | 0.00 | 0.00 | 88 | 1021.0 |
| 20260507113341 | 11 | 315 | 3.2 | 4.8 | 0.00 | 0.00 | 0.00 | 88 | 1021.1 |
| 20260507111835 | 11 | 311 | 1.6 | 6.4 | 0.00 | 0.00 | 0.00 | 88 | 1021.2 |
| 20260507110356 | 11 | 288 | 1.6 | 6.4 | 0.00 | 0.00 | 0.00 | 88 | 1021.1 |
| 20260507104823 | 11 | 261 | 0.0 | 4.8 | 0.00 | 0.00 | 0.00 | 88 | 1021.1 |
| 20260507103331 | 11 | 242 | 0.0 | 1.6 | 0.00 | 0.00 | 0.00 | 88 | 1021.3 |
| 20260507101839 | 11 | 242 | 1.6 | 8.0 | 0.00 | 0.00 | 0.00 | 87 | 1021.3 |
| 20260507100330 | 11 | 250 | 3.2 | 11.3 | 0.00 | 0.00 | 0.00 | 87 | 1021.4 |
| 20260507094820 | 11 | 231 | 6.4 | 11.3 | 0.00 | 0.00 | 0.00 | 87 | 1021.4 |
| 20260507093329 | 11 | 244 | 3.2 | 11.3 | 0.00 | 0.00 | 0.00 | 86 | 1021.6 |
| 20260507091837 | 11 | 238 | 1.6 | 8.0 | 0.00 | 0.00 | 0.00 | 86 | 1021.6 |
| 20260507090348 | 11 | 249 | 3.2 | 6.4 | 0.00 | 0.00 | 0.00 | 86 | 1021.9 |
| 20260507084858 | 11 | 262 | 3.2 | 8.0 | 0.00 | 0.00 | 0.00 | 87 | 1021.9 |
| 20260507083324 | 11 | 238 | 0.0 | 4.8 | 0.00 | 0.00 | 0.00 | 87 | 1021.8 |
| 20260507081833 | 11 | 230 | 4.8 | 8.0 | 0.00 | 0.00 | 0.00 | 87 | 1021.7 |
| 20260507080322 | 11 | 238 | 3.2 | 12.9 | 0.00 | 0.00 | 0.00 | 87 | 1021.7 |
| 20260507074829 | 11 | 239 | 8.0 | 14.5 | 0.00 | 0.00 | 0.00 | 87 | 1021.7 |
| 20260507073335 | 11 | 249 | 11.3 | 16.1 | 0.00 | 0.00 | 0.00 | 87 | 1021.7 |
| 20260507071825 | 11 | 239 | 9.7 | 16.1 | 0.00 | 0.00 | 0.00 | 86 | 1021.7 |
| 20260507070317 | 11 | 235 | 8.0 | 14.5 | 0.00 | 0.00 | 0.00 | 86 | 1021.6 |
| 20260507064826 | 11 | 214 | 9.7 | 17.7 | 0.00 | 0.00 | 0.00 | 86 | 1021.6 |
| 20260507063334 | 11 | 238 | 6.4 | 16.1 | 0.00 | 0.00 | 0.00 | 87 | 1021.6 |
| 20260507060332 | 11 | 230 | 11.3 | 19.3 | 0.00 | 0.00 | 0.00 | 87 | 1021.7 |
| 20260507054835 | 11 | 234 | 11.3 | 19.3 | 0.00 | 0.00 | 0.00 | 87 | 1021.5 |
| 20260507053345 | 11 | 237 | 14.5 | 25.7 | 0.00 | 0.00 | 0.00 | 86 | 1021.5 |
| 20260507051835 | 11 | 229 | 17.7 | 30.6 | 0.00 | 0.00 | 0.00 | 86 | 1021.3 |
| 20260507050323 | 11 | 247 | 16.1 | 30.6 | 0.00 | 0.00 | 0.00 | 85 | 1021.5 |
| 20260507044851 | 11 | 266 | 20.9 | 30.6 | 0.00 | 0.00 | 0.00 | 85 | 1021.3 |
| 20260507043338 | 11 | 237 | 17.7 | 35.4 | 0.00 | 0.00 | 0.00 | 84 | 1021.3 |
| 20260507041823 | 11 | 258 | 17.7 | 27.4 | 0.00 | 0.00 | 0.00 | 84 | 1021.1 |
| 20260507040326 | 11 | 235 | 17.7 | 30.6 | 0.00 | 0.00 | 0.00 | 84 | 1020.9 |
| 20260507034815 | 11 | 223 | 17.7 | 29.0 | 0.00 | 0.00 | 0.00 | 84 | 1020.8 |
| 20260507033347 | 12 | 244 | 17.7 | 30.6 | 0.00 | 0.00 | 0.00 | 83 | 1020.7 |
| 20260507031854 | 12 | 211 | 17.7 | 25.7 | 0.00 | 0.00 | 0.00 | 83 | 1020.6 |
| 20260507030323 | 12 | 220 | 12.9 | 22.5 | 0.00 | 0.00 | 0.00 | 81 | 1020.5 |
| 20260507024827 | 13 | 221 | 9.7 | 22.5 | 0.00 | 0.00 | 0.00 | 80 | 1020.5 |
| 20260507023358 | 13 | 227 | 14.5 | 24.1 | 0.00 | 0.00 | 0.00 | 78 | 1020.4 |
| 20260507021823 | 15 | 242 | 11.3 | 24.1 | 0.00 | 0.00 | 0.00 | 76 | 1020.4 |
| 20260507020331 | 15 | 221 | 14.5 | 27.4 | 0.00 | 0.00 | 0.00 | 74 | 1020.5 |
| 20260507014814 | 16 | 242 | 12.9 | 29.0 | 0.00 | 0.00 | 0.00 | 72 | 1020.6 |
| 20260507013349 | 17 | 244 | 12.9 | 24.1 | 0.00 | 0.00 | 0.00 | 71 | 1020.6 |
| 20260507011829 | 17 | 212 | 11.3 | 20.9 | 0.00 | 0.00 | 0.00 | 71 | 1020.5 |
| 20260507010344 | 17 | 243 | 16.1 | 27.4 | 0.00 | 0.00 | 0.00 | 69 | 1020.7 |
| 20260507004832 | 18 | 231 | 14.5 | 24.1 | 0.00 | 0.00 | 0.00 | 68 | 1020.7 |
| 20260507003342 | 19 | 225 | 8.0 | 22.5 | 0.00 | 0.00 | 0.00 | 66 | 1020.6 |
| 20260507001851 | 19 | 252 | 11.3 | 25.7 | 0.00 | 0.00 | 0.00 | 65 | 1020.6 |
| 20260507000338 | 20 | 238 | 9.7 | 19.3 | 0.00 | 0.00 | 0.00 | 64 | 1020.6 |
| 20260506234846 | 20 | 239 | 11.3 | 24.1 | 0.00 | 0.00 | 0.00 | 64 | 1020.6 |
| 20260506233350 | 21 | 253 | 8.0 | 17.7 | 0.00 | 0.00 | 0.00 | 62 | 1020.5 |
| 20260506231836 | 22 | 227 | 8.0 | 17.7 | 0.00 | 0.00 | 0.00 | 62 | 1020.6 |
| 20260506230327 | 22 | 209 | 9.7 | 19.3 | 0.00 | 0.00 | 0.00 | 62 | 1020.5 |
| 20260506224838 | 22 | 225 | 8.0 | 19.3 | 0.00 | 0.00 | 0.00 | 63 | 1020.7 |
| 20260506223327 | 22 | 214 | 8.0 | 12.9 | 0.00 | 0.00 | 0.00 | 65 | 1020.8 |
| 20260506221830 | 22 | 202 | 6.4 | 14.5 | 0.00 | 0.00 | 0.00 | 62 | 1020.9 |
| 20260506220333 | 22 | 233 | 4.8 | 12.9 | 0.00 | 0.00 | 0.00 | 65 | 1020.8 |
| 20260506214837 | 21 | 216 | 8.0 | 16.1 | 0.00 | 0.00 | 0.00 | 67 | 1020.9 |
| 20260506213322 | 21 | 222 | 6.4 | 14.5 | 0.00 | 0.00 | 0.00 | 66 | 1021.0 |
| 20260506211827 | 20 | 117 | 4.8 | 11.3 | 0.00 | 0.00 | 0.00 | 67 | 1020.9 |
| 20260506210331 | 20 | 192 | 1.6 | 12.9 | 0.00 | 0.00 | 0.00 | 72 | 1021.1 |
| 20260506204836 | 18 | 177 | 1.6 | 12.9 | 0.00 | 0.00 | 0.00 | 71 | 1021.3 |
| 20260506203322 | 18 | 233 | 6.4 | 11.3 | 0.00 | 0.00 | 0.00 | 75 | 1021.3 |
| 20260506201849 | 18 | 225 | 1.6 | 14.5 | 0.00 | 0.00 | 0.00 | 75 | 1021.4 |
| 20260506200336 | 18 | 207 | 1.6 | 11.3 | 0.00 | 0.00 | 0.00 | 75 | 1021.4 |
| 20260506194843 | 17 | 198 | 1.6 | 11.3 | 0.00 | 0.00 | 0.00 | 79 | 1021.4 |
| 20260506193328 | 17 | 201 | 6.4 | 14.5 | 0.00 | 0.00 | 0.00 | 78 | 1021.4 |
| 20260506191858 | 17 | 120 | 8.0 | 17.7 | 0.00 | 0.00 | 0.00 | 80 | 1021.5 |
| 20260506190323 | 16 | 178 | 6.4 | 12.9 | 0.00 | 0.00 | 0.00 | 80 | 1021.5 |
| 20260506184832 | 16 | 147 | 3.2 | 14.5 | 0.00 | 0.00 | 0.00 | 83 | 1021.5 |